Regional Weather Roundup
Issued by NWS

Home | Current Version | Previous Version | Text Only | Print | Product List | Glossary Off
Versions: 1 2 3 4 5 6 7 8 9 10 11 12 13 14 15 16 17 18 19 20 21 22 23 24 25 26 27 28 29 30 31 32 33 34 35 36 37 38 39 40 41 42 43 44 45 46 47 48 49 50

000
ASUS43 KIND 210109
RWRIN

WEATHER ROUNDUP FOR INDIANA
NATIONAL WEATHER SERVICE INDIANAPOLIS IN
900 PM EDT FRI APR 20 2018

NOTE: "FAIR" INDICATES FEW OR NO CLOUDS BELOW 12,000 FEET WITH NO
SIGNIFICANT WEATHER AND/OR OBSTRUCTIONS TO VISIBILITY.

* - STATION DOES NOT REPORT WEATHER SUCH AS PRECIPITATION OR FOG.

+ - STATION NOT QUALITY CONTROLLED BY THE NATIONAL WEATHER SERVICE.
    USE DATA WITH CAUTION...ESPECIALLY DEWPOINT AND RELATIVE
    HUMIDITY OBSERVATIONS.

INZ001>003-010>013-019-020-210200-
NORTHWEST INDIANA

CITY           SKY/WX    TMP DP  RH WIND       PRES   REMARKS
GARY /AIRPORT/ PTCLDY    46  12  25 E5        30.44S
KNOX *+        FAIR      43  23  45 N8        30.42S
LA PORTE +     FAIR      43  16  33 N3        30.44R
MICHIGAN CITY+ FAIR      43  19  39 CALM      30.44S
MONTICELLO +   FAIR      53  19  26 CALM      30.40R
RENSSELAER +   FAIR      48   5  17 N7        30.41S
VALPARAISO     FAIR      46  18  32 N5        30.43S

$$

LMZ046-743>745-210200-
SOUTHERN LAKE MICHIGAN

STATION/POSITION TIME  TEMP    WIND        PRES    WAVE
                       AIR SEA DIR/SP/G            HT
                 (UTC) (F)     (DEG/KT/KT) (MB)    (FT)
BURNS HARBOR     0040   44      80/  7/  9 1030.8F
MICHIGAN CITY    0040   43      40/  6/  7   N/A

$$

INZ004-005-014>016-021>024-210200-
NORTH CENTRAL INDIANA

CITY           SKY/WX    TMP DP  RH WIND       PRES   REMARKS
ELKHART        FAIR      48  19  32 CALM      30.42S
GOSHEN         FAIR      50  27  40 NW7       30.41R
LOGANSPORT +   FAIR      48  27  43 E3        30.41S
PERU/GRISSOM   PTCLDY    57  16  19 NE3       30.40F
ROCHESTER +    FAIR      52  25  35 N7        30.42R
SOUTH BEND     FAIR      43  19  38 N7        30.43F
WARSAW +       FAIR      46  28  49 CALM      30.41S

$$

INZ006>009-017-018-025>027-210200-
NORTHEAST INDIANA

CITY           SKY/WX    TMP DP  RH WIND       PRES   REMARKS
ANGOLA *+      FAIR      48  21  34 CALM      30.41S
AUBURN +       FAIR      48  23  37 CALM      30.42S
FORT WAYNE     FAIR      52  24  33 SE5       30.42S
HUNTINGTON +   FAIR      50  23  34 CALM      30.41S

$$

INZ028-029-035-036-043>045-051>053-210200-
WEST CENTRAL INDIANA

CITY           SKY/WX    TMP DP  RH WIND       PRES   REMARKS
CRAWFORDSVL +  FAIR      50  24  36 E5        30.40R
GREENCASTLE +  FAIR      50  23  34 CALM      30.40S
LAFAYETTE      FAIR      49  21  33 E7        30.40S
TERRE HAUTE    FAIR      47  29  49 E8        30.38S

$$

INZ030>032-037>040-046>048-054>057-064-065-210200-
CENTRAL INDIANA

CITY           SKY/WX    TMP DP  RH WIND       PRES   REMARKS
COLUMBUS       CLEAR     50 N/A N/A NE7       30.41S
FRANKFORT +    FAIR      47  27  44 SE6       30.42S
GREENWOOD *+   FAIR      52  23  32 E3        30.41S
INDIANAPOLIS   FAIR      52  21  29 E7        30.40S
-EAGLE CREEK   FAIR      55  20  25 NE3       30.39S
KOKOMO +       FAIR      48  32  53 E3        30.42S
MARION +       FAIR      53  19  26 CALM      30.42S
MT COMFORT *+  FAIR      46  32  57 E6        30.41S
SHELBYVILLE    FAIR      50  29  44 E6        30.40S
ZIONSVILLE +   FAIR      51  23  34 E5        30.41S

$$

INZ033-034-041-042-049-050-058-059-210200-
EAST CENTRAL INDIANA

CITY           SKY/WX    TMP DP  RH WIND       PRES   REMARKS
MUNCIE         FAIR      50  25  37 E3        30.41S
RICHMOND +     FAIR      46  27  46 NE5       30.42S

$$

INZ060-061-067>069-081>083-085>088-210200-
SOUTHWEST INDIANA

CITY           SKY/WX    TMP DP  RH WIND       PRES   REMARKS
EVANSVILLE     FAIR      55  29  36 NE7       30.35F
HUNTINGBURG +  FAIR      55  28  35 NE9       30.36F
WASHINGTON +   FAIR      52  34  50 SE5       30.36S

$$

INZ062-063-066-070>080-084-089>092-210200-
SOUTH CENTRAL AND SOUTHEAST INDIANA

CITY           SKY/WX    TMP DP  RH WIND       PRES   REMARKS
BATESVILLE +   CLEAR     50  27  40 MISG      30.40S
BEDFORD +      FAIR      54  19  26 E6        30.38
BLOOMINGTON    FAIR      54  23  30 NE7       30.38F
FRENCH LICK *+ FAIR      54  14  20 NE6       30.37F
MADISON *+     FAIR      52  21  30 E5        30.41S
NORTH VERNON + FAIR      50  27  40 CALM      30.40S
SEYMOUR +      FAIR      54  30  40 N6        30.39S

$$





USA.gov is the U.S. government's official web portal to all federal, state and local government web resources and services.